OK2AF-5 Weather Reports


time (UTC)temp
C
wind
direction
speed
KPH
gust
KPH
rain 1hr
cm
rain 24hr
cm
rain mn
cm
humidity
%
barometer
mb
20260905194737 -17 315 0.0 0.0 0.00 0.23 0.23 1021.5
20260905193815 -17 315 0.0 0.0 0.00 0.23 0.23 1021.3
20260905192921 -17 315 0.0 0.0 0.00 0.23 0.23 1021.2
20260905192026 -17 315 0.0 0.0 0.00 0.23 0.23 1021.1
20260905191132 -17 315 0.0 0.0 0.00 0.23 0.23 1021.0
20260905190238 -17 315 0.0 0.0 0.00 0.23 0.23 1020.9
20260905185338 -17 315 0.0 0.0 0.00 0.23 0.23 1020.7
20260905184441 -17 315 0.0 0.0 0.00 0.23 0.23 1020.3
20260905183546 -17 315 0.0 0.0 0.00 0.23 0.23 1020.1
20260905182647 -17 315 0.0 0.0 0.00 0.23 0.23 1020.1
20260905181751 -17 315 0.0 0.0 0.00 0.23 0.23 1019.9
20260905180856 -17 315 0.0 0.0 0.00 0.23 0.23 1019.7
20260905175957 -17 315 0.0 0.0 0.00 0.23 0.23 1019.5
20260905175103 -17 315 0.0 1.6 0.00 0.23 0.23 1019.2
20260905174211 -17 315 1.6 4.8 0.00 0.23 0.23 1019.0
20260905173316 -17 315 3.2 6.4 0.00 0.23 0.23 1018.7
20260905172422 -17 0 4.8 9.7 0.00 0.23 0.23 1018.2
20260905171528 -17 45 8.0 11.3 0.00 0.23 0.23 1018.3
20260905170633 -17 45 6.4 8.0 0.00 0.23 0.23 1018.1
20260905165740 -17 45 4.8 11.3 0.00 0.23 0.23 1018.0
20260905164844 -17 45 4.8 14.5 0.00 0.23 0.23 1017.7
20260905163951 -17 315 4.8 12.9 0.00 0.23 0.23 1017.6
20260905163057 -17 0 6.4 12.9 0.00 0.23 0.23 1017.5
20260905162159 -17 0 4.8 14.5 0.00 0.23 0.23 1017.2
20260905161300 -17 0 6.4 16.1 0.00 0.23 0.23 1017.1
20260905160405 -17 45 6.4 22.5 0.00 0.23 0.23 1017.0
20260905155510 -17 0 8.0 19.3 0.00 0.23 0.23 1017.1
20260905154613 -17 0 6.4 20.9 0.00 0.23 0.23 1017.1
20260905153721 -17 0 14.5 20.9 0.00 0.23 0.23 1017.1
20260905152828 -17 45 9.7 27.4 0.00 0.23 0.23 1017.0
20260905151932 -17 315 17.7 24.1 0.00 0.23 0.23 1016.9
20260905151031 -17 0 14.5 25.7 0.00 0.23 0.23 1016.8
20260905150130 -17 0 6.4 27.4 0.00 0.23 0.23 1016.6
20260905145229 -17 0 16.1 33.8 0.00 0.23 0.23 1016.5
20260905144327 -17 0 4.8 27.4 0.00 0.23 0.23 1016.5
20260905143426 -17 315 12.9 35.4 0.00 0.23 0.23 1016.5
20260905142524 -17 0 8.0 20.9 0.00 0.23 0.23 1016.5
20260905141622 -17 0 9.7 24.1 0.00 0.23 0.23 1016.9
20260905140721 -17 315 14.5 27.4 0.00 0.23 0.23 1016.7
20260905135819 -17 0 8.0 32.2 0.00 0.23 0.23 1016.9
20260905134919 -17 0 14.5 33.8 0.00 0.23 0.23 1016.8
20260905134017 -17 315 9.7 30.6 0.00 0.23 0.23 1017.0
20260905133116 -17 315 16.1 30.6 0.00 0.23 0.23 1016.8
20260905131305 -17 315 9.7 33.8 0.00 0.23 0.23 1017.1
20260905130402 -17 0 17.7 35.4 0.00 0.23 0.23 1017.2
20260905125501 -17 315 17.7 32.2 0.00 0.23 0.23 1017.2
20260905124601 -17 315 9.7 33.8 0.00 0.23 0.23 1017.1
20260905123658 -17 45 19.3 32.2 0.00 0.23 0.23 1017.1
20260905122754 -17 0 8.0 33.8 0.00 0.23 0.23 1017.2
20260905121850 -17 315 16.1 30.6 0.00 0.23 0.23 1017.2
20260905120949 -17 315 8.0 33.8 0.00 0.23 0.23 1017.2
20260905120047 -17 0 20.9 33.8 0.00 0.23 0.23 1017.5
20260905115147 -17 315 19.3 37.0 0.00 0.23 0.23 1017.1
20260905114246 -17 315 16.1 37.0 0.00 0.23 0.23 1017.4
20260905113344 -17 315 11.3 33.8 0.00 0.23 0.23 1017.3
20260905112447 -17 0 11.3 29.0 0.00 0.23 0.23 1017.3
20260905111552 -17 315 14.5 40.2 0.00 0.23 0.23 1017.4
20260905110657 -17 315 8.0 35.4 0.00 0.23 0.23 1017.2
20260905105804 -17 0 14.5 30.6 0.00 0.23 0.23 1017.5
20260905104910 -17 315 17.7 33.8 0.00 0.23 0.23 1017.5
20260905104016 -17 315 8.0 25.7 0.00 0.23 0.23 1017.5
20260905103122 -17 0 20.9 30.6 0.00 0.23 0.23 1017.6
20260905102228 -17 0 16.1 24.1 0.00 0.23 0.23 1017.9
20260905101337 -17 0 9.7 22.5 0.00 0.23 0.23 1017.7
20260905100443 -17 90 12.9 17.7 0.00 0.23 0.23 1017.5
20260905095545 -17 45 4.8 25.7 0.00 0.23 0.23 1017.8
20260905094646 -17 0 12.9 24.1 0.00 0.23 0.23 1017.9
20260905093747 -17 315 12.9 27.4 0.00 0.23 0.23 1017.7
20260905092847 -17 315 4.8 20.9 0.00 0.23 0.23 1017.6
20260905091951 -17 315 8.0 20.9 0.00 0.23 0.23 1017.9
20260905091057 -17 0 8.0 20.9 0.00 0.23 0.23 1018.0
20260905090203 -17 0 6.4 16.1 0.00 0.23 0.23 1018.0
20260905085307 -17 315 4.8 14.5 0.00 0.23 0.23 1017.8
20260905084411 -17 0 9.7 22.5 0.00 0.23 0.23 1017.8
20260905083516 -17 0 6.4 19.3 0.00 0.23 0.23 1017.7
20260905082622 -17 315 11.3 22.5 0.00 0.23 0.23 1017.8
20260905081726 -17 0 9.7 24.1 0.00 0.23 0.23 1017.9
20260905080831 -17 45 8.0 19.3 0.00 0.23 0.23 1017.7
20260905075935 -17 0 11.3 22.5 0.00 0.23 0.23 1017.6
20260905075040 -17 315 9.7 22.5 0.00 0.23 0.23 1017.6
20260905074146 -17 0 8.0 19.3 0.00 0.23 0.23 1017.5
20260905073248 -17 0 6.4 14.5 0.00 0.23 0.23 1017.7
20260905072355 -17 315 6.4 12.9 0.00 0.23 0.23 1017.7
20260905071500 -17 315 1.6 11.3 0.00 0.23 0.23 1017.5
20260905070601 -17 338 4.8 16.1 0.00 0.23 0.23 1017.8
20260905065704 -17 0 3.2 12.9 0.00 0.23 0.23 1017.9
20260905064811 -17 0 1.6 16.1 0.00 0.23 0.23 1017.9
20260905063913 -17 0 4.8 12.9 0.00 0.23 0.23 1017.8
20260905063015 -17 270 6.4 19.3 0.00 0.23 0.23 1018.0
20260905062122 -17 0 4.8 14.5 0.00 0.23 0.23 1017.9
20260905061228 -17 45 8.0 16.1 0.00 0.23 0.23 1017.6
20260905060332 -17 338 11.3 14.5 0.00 0.23 0.23 1017.5
20260905055436 -17 315 6.4 17.7 0.08 0.23 0.23 1017.7
20260905054540 -17 0 11.3 11.3 0.08 0.23 0.23 1017.6
20260905053645 -17 0 3.2 11.3 0.08 0.23 0.23 1016.5
20260905052749 -17 270 1.6 11.3 0.08 0.23 0.23 1016.6
20260905051855 -17 90 6.4 12.9 0.03 0.18 0.18 1017.0
20260905050957 -17 0 8.0 14.5 0.00 0.15 0.15 1017.3
20260905050059 -17 0 8.0 14.5 0.00 0.15 0.15 1017.2
20260905045205 -17 315 1.6 19.3 0.08 0.08 0.08 1017.3
20260905044312 -17 0 12.9 16.1 0.03 0.03 0.03 1017.1
20260905043417 -17 45 9.7 22.5 0.00 0.00 0.00 1016.8
20260905042524 -17 315 9.7 22.5 0.00 0.00 0.00 1016.5
20260905041629 -17 0 3.2 16.1 0.00 0.00 0.00 1016.5
20260905040734 -17 315 8.0 9.7 0.00 0.00 0.00 1016.2
20260905035840 -17 0 4.8 8.0 0.00 0.00 0.00 1015.3
20260905034944 -17 0 3.2 9.7 0.00 0.00 0.00 1015.7
20260905034020 -17 0 3.2 11.3 0.00 0.00 0.00 1015.4
20260905033125 -17 315 8.0 9.7 0.00 0.00 0.00 1015.5
20260905032231 -17 315 4.8 8.0 0.00 0.00 0.00 1015.0
20260905031337 -17 315 1.6 9.7 0.00 0.00 0.00 1014.8
20260905030442 -17 315 8.0 11.3 0.00 0.00 0.00 1015.7
20260905025546 -17 315 4.8 14.5 0.00 0.00 0.00 1015.4
20260905024649 -17 0 12.9 17.7 0.00 0.00 0.00 1015.0
20260905023755 -17 0 8.0 16.1 0.00 0.00 0.00 1014.8
20260905022900 -17 0 3.2 14.5 0.00 0.00 0.00 1014.9
20260905022005 -17 45 8.0 16.1 0.00 0.00 0.00 1014.6
20260905021111 -17 45 4.8 9.7 0.00 0.00 0.00 1014.6
20260905020217 -17 0 6.4 9.7 0.00 0.00 0.00 1014.6
20260905015323 -17 0 3.2 8.0 0.00 0.00 0.00 1014.2
20260905014429 -17 45 3.2 8.0 0.00 0.00 0.00 1013.9
20260905013537 -17 45 4.8 16.1 0.00 0.00 0.00 1014.1
20260905012643 -17 45 8.0 14.5 0.00 0.00 0.00 1014.0
20260905011748 -17 45 8.0 12.9 0.00 0.00 0.00 1014.1
20260905010853 -17 0 8.0 17.7 0.00 0.00 0.00 1014.1
20260905010000 -17 45 9.7 24.1 0.00 0.00 0.00 1014.1
20260905005104 -17 0 9.7 19.3 0.00 0.00 0.00 1014.1
20260905004211 -17 45 6.4 27.4 0.00 0.00 0.00 1013.9
20260905003317 -17 45 11.3 22.5 0.00 0.00 0.00 1013.7
20260905002422 -17 315 12.9 25.7 0.00 0.00 0.00 1013.5
20260905001529 -17 0 16.1 29.0 0.00 0.00 0.00 1013.2
20260905000634 -17 45 17.7 24.1 0.00 0.00 0.00 1013.2
20260904235739 -17 45 12.9 24.1 0.00 0.00 0.00 1013.2
20260904234840 -17 0 17.7 33.8 0.00 0.00 0.00 1012.6
20260904233944 -17 0 14.5 37.0 0.00 0.00 0.00 1012.0
20260904232157 -17 0 8.0 14.5 0.00 0.00 0.00 1010.0
20260904231301 -17 315 6.4 14.5 0.00 0.00 0.00 1009.7
20260904230405 -17 270 8.0 17.7 0.00 0.00 0.00 1009.5
20260904225511 -17 315 9.7 17.7 0.00 0.00 0.00 1009.5
20260904224617 -17 315 4.8 16.1 0.00 0.00 0.00 1009.5
20260904223722 -17 248 4.8 14.5 0.00 0.00 0.00 1009.6
20260904222826 -17 270 4.8 16.1 0.00 0.00 0.00 1009.6
20260904221928 -17 270 9.7 12.9 0.00 0.00 0.00 1009.6
20260904221038 -17 315 1.6 16.1 0.00 0.00 0.00 1009.6
20260904220143 -17 225 6.4 16.1 0.00 0.00 0.00 1009.6
20260904215248 -17 270 4.8 14.5 0.00 0.00 0.00 1009.6
20260904214354 -17 315 1.6 11.3 0.00 0.00 0.00 1009.6
20260904213457 -17 270 3.2 20.9 0.00 0.00 0.00 1009.5
20260904212602 -17 270 4.8 8.0 0.00 0.00 0.00 1009.5
20260904211707 -17 315 8.0 14.5 0.00 0.00 0.00 1009.4
20260904210812 -17 248 4.8 9.7 0.00 0.00 0.00 1009.5
20260904205919 -17 270 4.8 8.0 0.00 0.00 0.00 1009.6
20260904205026 -17 270 1.6 11.3 0.00 0.00 0.00 1009.7
20260904204138 -17 270 4.8 12.9 0.00 0.00 0.00 1009.7
20260904203239 -17 225 9.7 14.5 0.00 0.00 0.00 1009.7
20260904202337 -17 293 4.8 14.5 0.00 0.00 0.00 1009.8
20260904201436 -17 270 8.0 14.5 0.00 0.00 0.00 1009.9
20260904200536 -17 270 4.8 8.0 0.00 0.00 0.00 1009.9
20260904195634 -17 270 3.2 8.0 0.00 0.00 0.00 1010.2